Theta_e
326 326 326 326 325 325 325 325 325 325 325 325 325 325 325 324 324 325 325 325 325 325 325 325 325 325 324 325 326 326 327 327 327 326 326 327 327 328 328 328 329 329 329 329 329 329 329 329 329 329 329 328 328 327 327 327 326 326 325 326 326 325 325 325 325 324 324 324 325
324 325 325 324 324 324 324 324 325 325 325 325 325 325 324 324 323 323 323 323 323 323 324 324 324 323 323 322 323 323 324 324 325 325 325 325 326 326 327 327 327 328 328 328 328 328 329 329 329 329 329 328 328 327 327 327 327 326 326 325 325 325 325 325 325 325 325 324 324
322 323 324 324 324 323 323 323 323 324 324 325 325 325 324 324 324 323 323 323 323 324 324 324 324 323 323 323 322 323 323 324 325 325 325 326 326 326 327 327 327 327 327 327 327 328 329 329 329 329 329 328 328 327 327 326 326 326 325 325 325 325 325 325 325 325 325 325 324
320 322 323 324 323 323 322 322 322 322 323 323 324 324 323 323 323 323 323 323 323 323 323 323 323 323 324 324 323 323 324 324 325 325 326 327 327 327 328 328 327 327 327 326 327 328 328 329 329 328 327 327 326 325 325 326 326 325 325 325 325 325 324 324 325 325 325 325 324
318 319 321 323 323 323 323 323 322 322 322 323 323 323 323 323 323 323 323 323 323 323 323 324 323 323 323 323 323 324 324 324 324 325 326 327 327 328 328 328 328 327 327 326 326 327 327 328 327 326 325 324 324 324 325 326 326 325 325 325 325 324 324 324 324 325 325 325 324
316 317 318 321 322 323 324 324 324 323 323 323 323 323 323 323 324 324 323 323 323 324 324 324 323 323 323 323 323 323 323 323 323 324 325 325 326 326 326 327 327 327 327 327 327 327 327 326 325 324 324 324 324 324 325 326 326 325 324 324 324 324 323 323 324 324 324 324 324
315 316 316 317 319 321 322 323 323 324 324 324 324 323 323 323 324 324 324 324 324 324 323 323 323 323 323 323 323 323 323 323 323 323 323 324 324 324 325 325 326 326 327 327 327 327 327 326 324 324 323 323 324 325 325 326 325 325 324 323 324 324 323 323 324 324 324 324 323
316 316 316 316 317 319 320 322 322 322 322 322 322 322 323 323 323 323 323 323 322 322 322 323 323 323 323 323 323 323 323 323 323 323 323 323 323 323 323 324 324 325 325 326 327 327 327 327 326 325 324 324 324 325 325 325 325 325 324 324 324 324 324 324 325 324 324 323 323
315 315 316 317 318 318 319 320 321 321 322 322 322 321 321 322 322 322 322 322 321 321 321 322 322 322 323 323 323 323 323 322 322 322 322 323 323 323 323 323 323 323 324 324 325 325 325 325 325 325 324 324 324 324 324 325 324 324 324 324 324 324 324 324 324 324 323 323 323
312 313 315 316 317 318 319 319 320 320 321 321 321 321 321 320 321 321 321 321 321 320 320 321 321 321 322 322 322 322 322 322 321 321 321 321 321 322 322 322 322 322 322 322 322 322 322 322 323 323 323 323 323 323 323 323 323 323 323 323 323 323 323 323 323 323 323 323 322
309 311 312 313 315 316 318 319 319 319 320 320 320 320 320 320 320 320 321 321 321 321 321 321 321 321 321 322 321 321 321 321 321 320 320 320 320 320 320 320 320 320 320 321 321 321 321 321 321 321 321 321 322 322 322 322 322 321 322 322 322 322 322 322 322 322 322 322 322
307 308 309 311 312 314 316 317 318 318 318 318 319 319 320 320 319 319 320 321 321 321 321 321 321 321 321 321 320 320 320 320 320 320 319 319 319 319 319 318 318 318 319 319 319 320 320 321 321 320 320 320 320 320 320 319 319 319 319 320 320 320 320 320 320 321 321 321 320
306 307 307 308 309 310 312 313 314 315 315 316 317 318 319 319 319 319 319 320 320 320 321 321 321 321 321 321 320 320 320 320 320 319 319 319 318 318 318 318 318 318 318 319 319 320 320 320 320 320 319 319 319 319 319 319 318 318 318 318 318 318 318 318 318 318 318 318 319
304 305 305 307 307 308 308 309 310 311 312 312 314 316 317 318 319 319 319 319 319 319 319 319 320 320 321 321 320 320 320 320 319 319 319 319 318 318 318 318 318 318 318 319 319 320 320 320 320 320 319 319 319 319 319 319 318 318 318 318 317 317 317 317 316 316 317 317 317
302 303 304 305 306 306 306 307 308 309 310 310 311 313 315 316 317 318 319 319 319 318 318 318 319 319 320 320 320 320 320 320 320 319 319 319 319 318 318 318 318 319 319 319 319 319 320 320 320 320 319 319 319 319 319 319 318 318 318 318 317 317 317 316 316 316 316 316 316
301 301 302 303 303 304 305 305 306 307 307 308 309 310 311 313 314 315 315 316 318 318 319 319 319 319 319 319 319 320 320 320 320 320 319 319 319 319 319 319 319 319 319 319 319 319 319 320 320 320 320 319 319 319 319 319 318 318 318 318 318 317 317 316 316 316 316 316 316
299 300 301 301 301 302 303 303 304 305 306 306 307 308 309 310 311 311 312 313 314 315 316 317 319 319 320 319 319 319 319 320 320 319 319 319 319 319 319 319 319 319 319 319 319 319 319 319 320 320 320 319 319 319 319 319 318 318 318 318 318 318 317 317 316 316 316 316 316
298 299 299 299 300 300 301 302 302 303 304 304 305 306 306 307 307 308 309 310 310 311 312 314 316 317 318 319 319 319 319 319 319 319 319 319 319 319 319 319 319 319 319 319 319 319 319 319 319 319 319 319 319 319 319 319 319 319 318 318 318 318 318 317 317 317 317 316 316
298 298 298 298 298 299 299 300 301 301 302 302 303 304 304 305 305 306 306 307 308 309 310 311 312 313 315 316 317 317 318 319 319 319 319 319 319 319 319 318 318 318 318 318 319 319 319 319 319 319 319 319 319 319 319 319 319 319 319 318 318 318 318 318 318 318 317 317 316
297 297 297 297 297 298 298 299 299 300 300 301 301 302 302 303 303 304 304 305 306 307 308 309 310 311 312 312 313 314 315 316 317 318 319 319 319 319 319 318 317 317 316 317 318 318 319 319 319 319 319 319 319 319 319 319 319 319 319 319 318 318 318 318 318 318 318 317 317
296 296 296 296 297 297 297 298 298 298 299 299 300 300 300 301 302 302 303 303 304 305 305 306 307 308 309 309 310 310 311 312 314 315 316 317 318 318 318 318 317 317 317 316 317 317 318 319 319 319 319 319 319 319 319 319 319 318 318 318 318 318 318 318 318 318 318 317 317
295 295 295 295 296 296 296 297 297 297 298 298 298 299 299 300 300 301 301 302 302 303 303 303 304 305 306 307 307 308 309 309 310 312 313 314 316 317 318 318 318 318 317 317 317 317 317 317 318 318 319 319 319 319 319 319 318 318 318 318 318 318 317 317 318 318 317 317 317
294 294 294 294 294 295 295 296 296 296 296 297 297 297 298 298 299 300 300 300 301 301 302 302 303 303 304 305 305 306 306 307 308 308 310 311 312 314 316 317 317 317 317 318 318 317 317 317 317 318 318 318 318 318 318 318 318 318 318 318 317 317 317 317 317 317 317 317 317
292 293 293 293 293 293 294 294 294 295 295 295 296 296 297 297 298 298 299 299 299 300 300 301 301 302 303 304 304 304 304 305 305 306 307 308 309 310 312 314 316 317 318 318 317 317 317 317 317 317 317 318 318 318 318 318 318 318 318 317 317 317 317 317 316 316 316 316 316
291 291 291 292 292 292 292 292 293 293 294 294 295 295 296 296 297 298 298 298 299 299 299 299 300 301 301 302 303 303 304 304 304 304 305 305 306 307 309 310 313 315 316 317 314 313 313 315 316 317 318 318 317 317 318 318 318 318 317 317 317 316 316 316 315 315 315 315 315
290 290 290 290 290 291 291 291 291 292 292 293 293 294 295 295 296 297 297 297 297 298 298 298 299 300 301 302 302 302 303 303 303 303 303 304 304 305 306 307 309 312 314 313 312 312 313 313 314 315 316 318 318 317 317 317 317 317 317 317 316 316 315 315 314 314 314 314 314
289 289 289 290 289 290 290 290 290 291 291 291 292 293 293 295 296 296 296 297 297 297 298 298 298 299 301 301 301 301 301 302 302 302 302 302 302 303 304 305 306 308 310 310 310 311 312 313 313 314 315 316 317 317 317 317 317 317 316 316 316 316 315 314 313 313 312 312 312
289 289 289 289 289 289 289 289 289 290 290 290 291 292 293 294 295 295 296 296 296 297 297 298 299 300 300 301 301 301 301 301 301 301 301 301 301 301 302 303 304 305 306 307 308 308 309 310 311 312 313 314 316 316 316 316 316 316 316 315 315 315 314 313 313 312 311 310 310
288 288 288 288 288 288 288 288 288 289 289 290 290 291 292 293 293 294 294 295 296 296 297 298 299 300 299 299 299 300 300 300 300 300 300 300 300 301 301 302 303 303 305 305 306 307 307 308 308 309 310 311 314 316 316 316 316 315 315 314 314 313 313 313 312 311 310 309 308
287 287 287 287 287 287 288 288 288 288 289 289 290 291 291 292 292 293 293 294 295 296 297 298 298 298 298 298 298 299 299 299 300 300 300 300 300 300 300 301 301 302 303 304 305 306 306 307 307 308 308 308 310 313 315 316 315 314 313 313 313 312 311 311 311 310 309 309 307
286 286 286 286 286 286 287 287 287 288 288 288 289 289 290 290 291 291 292 293 294 295 296 297 297 297 297 298 298 298 298 299 299 299 299 299 299 300 300 300 301 301 302 304 304 305 306 306 306 307 307 307 308 310 312 313 313 313 313 312 311 311 311 310 310 309 309 308 307
285 285 285 285 285 286 286 286 287 287 287 287 288 288 289 289 290 291 291 292 293 294 295 296 296 297 297 297 297 297 297 297 298 298 299 299 299 299 299 300 300 301 302 303 304 304 305 305 305 306 306 306 307 308 310 311 311 312 311 311 311 310 310 310 310 309 308 308 307
284 284 284 284 285 285 285 286 286 286 287 287 287 288 288 289 290 290 291 292 292 293 294 294 295 296 297 297 297 297 297 297 297 297 298 298 298 299 299 299 300 300 301 302 303 303 304 304 304 305 305 305 306 307 308 308 310 310 310 310 309 309 309 309 309 309 308 307 307
284 284 284 284 284 285 285 285 285 286 286 286 286 287 287 288 288 289 290 291 291 292 293 294 294 295 296 297 297 297 297 297 297 297 297 297 298 298 298 298 299 300 301 302 302 302 302 303 303 304 304 305 305 306 306 306 308 308 308 308 308 308 307 307 307 308 307 307 306
284 284 284 284 284 284 284 285 285 285 285 285 286 286 286 287 287 288 289 290 291 291 292 293 294 294 295 295 296 296 296 296 297 297 297 297 297 297 297 297 298 299 300 301 301 301 302 302 302 303 303 304 304 305 305 305 306 306 307 307 307 307 306 306 307 307 307 307 306
283 283 283 283 284 284 284 284 284 284 285 285 285 285 285 286 286 287 288 290 290 290 291 291 292 292 292 293 294 294 295 295 295 296 296 297 297 297 296 297 297 298 299 300 300 301 301 301 302 302 302 303 303 304 304 305 305 305 305 306 306 305 305 305 305 305 306 306 305
283 282 282 283 283 283 283 284 284 284 284 284 284 284 285 285 285 286 287 289 289 289 289 290 290 290 290 291 291 292 293 293 294 294 295 296 296 296 296 296 296 297 298 299 300 300 300 301 301 302 302 302 303 303 304 304 304 305 305 304 305 304 304 303 303 303 304 305 304
282 282 282 282 283 283 283 283 283 283 283 284 284 284 284 285 285 286 287 288 287 287 288 288 288 289 289 290 290 291 291 291 292 293 293 294 295 295 295 295 296 296 297 298 299 300 300 300 301 301 302 302 302 303 303 303 303 303 303 303 303 302 301 301 302 302 302 302 301
282 282 282 282 282 283 283 283 283 283 283 283 283 283 284 284 284 285 286 287 286 286 286 287 288 288 289 290 290 289 289 290 291 292 292 293 294 295 295 295 295 296 297 298 299 299 299 300 301 301 301 301 302 303 303 303 303 303 303 302 302 300 298 298 299 300 300 300 300
282 282 282 282 282 283 283 282 282 282 283 283 283 283 283 284 285 285 286 286 285 285 286 287 287 288 289 289 289 289 289 289 290 291 291 292 293 294 294 295 295 295 296 297 298 299 299 300 300 301 301 301 302 302 303 303 302 302 301 301 301 299 298 296 296 297 297 297 299
282 282 282 282 282 282 282 282 282 283 283 283 283 283 284 285 285 285 285 285 285 285 286 287 287 288 288 289 289 289 289 289 289 290 290 291 292 293 294 294 295 295 296 297 298 298 299 300 300 300 301 301 301 302 302 302 302 301 301 300 300 299 298 296 295 295 295 295 297
Wind_Speed
4 5 5 5 4 3 3 3 3 3 3 3 3 4 5 8 7 5 5 6 4 3 3 3 3 3 3 3 3 3 3 3 3 3 4 4 5 6 6 6 7 7 7 7 7 6 6 6 6 5 5 5 6 6 6 5 6 6 6 6 6 6 6 7 7 7 8 7 6
2 2 3 4 3 3 2 2 2 2 3 2 2 3 3 5 6 7 7 9 6 3 1 2 2 2 2 2 2 2 2 2 2 2 2 3 3 4 4 4 4 5 5 5 5 5 5 5 6 6 5 5 6 6 6 5 5 6 7 8 6 6 6 7 7 7 7 7 6
7 4 1 3 3 3 2 2 2 2 3 3 3 3 3 3 4 5 6 7 7 6 4 2 2 1 1 1 1 1 1 2 2 2 2 2 3 3 3 3 3 3 4 4 4 4 4 5 5 6 5 5 5 5 5 5 5 6 7 8 6 5 5 5 5 6 6 6 7
11 8 4 2 4 4 3 2 2 2 3 3 3 3 3 2 3 3 4 4 6 6 6 6 6 5 5 4 3 3 3 2 2 2 3 4 4 5 5 4 4 4 4 4 4 5 5 6 5 5 5 6 8 8 7 6 7 8 8 8 7 6 7 6 6 5 6 6 7
12 11 8 5 4 4 3 2 3 3 3 3 3 3 3 2 3 3 3 3 3 4 5 7 6 7 8 8 9 8 7 6 5 5 6 7 6 6 6 6 6 6 7 7 8 8 9 9 7 7 8 10 10 9 9 9 9 10 10 9 9 9 9 9 8 7 6 6 6
11 11 11 10 8 5 3 3 3 3 3 3 4 4 4 3 3 3 3 4 4 5 6 7 7 7 8 10 11 10 8 8 7 8 8 9 8 8 9 10 10 10 10 11 12 12 13 13 11 10 11 11 11 11 12 11 11 12 12 11 10 10 10 11 10 8 7 7 9
10 11 12 13 12 9 7 4 3 3 3 3 4 4 4 3 3 3 3 3 3 4 5 5 6 7 7 8 9 9 9 9 9 9 9 8 7 8 9 10 11 12 12 12 12 12 12 13 12 12 11 11 11 12 14 13 13 13 13 12 10 9 9 11 9 8 9 11 14
10 11 12 13 13 12 11 10 8 6 5 4 4 4 4 3 2 2 2 2 2 2 3 3 5 5 6 7 8 9 10 10 10 9 9 8 8 8 9 10 11 12 11 10 10 9 9 8 8 9 10 10 9 9 10 11 13 13 13 12 9 8 9 10 8 8 10 14 15
11 12 12 12 12 12 12 11 11 10 8 7 7 6 5 3 1 1 1 2 1 1 1 2 3 3 4 5 6 7 8 8 8 8 8 8 9 9 10 11 12 12 10 8 7 7 6 5 5 6 7 7 7 7 7 8 10 11 11 9 7 7 7 8 8 9 11 13 14
13 12 12 11 11 10 9 9 9 9 9 8 7 6 5 3 2 1 0 0 0 0 0 1 2 2 3 4 4 5 5 4 4 3 4 6 8 9 9 9 10 9 8 7 6 5 5 4 4 5 5 6 7 7 8 8 9 10 9 7 7 7 8 8 8 9 11 12 12
13 12 11 10 10 9 8 8 7 7 7 7 7 6 4 3 2 1 0 0 1 1 1 2 2 2 3 4 4 3 3 2 2 2 2 2 3 4 4 4 3 4 4 4 4 4 4 3 4 5 5 5 5 6 6 6 7 8 8 7 8 9 10 10 9 9 9 10 11
11 11 10 10 10 10 9 8 8 8 8 8 7 7 6 4 3 2 1 1 2 2 2 2 2 3 3 3 3 3 2 2 2 2 2 2 2 2 2 1 1 1 2 3 3 3 4 4 5 6 6 6 5 5 5 5 6 6 7 8 8 9 9 9 9 8 7 8 9
10 10 10 10 10 9 9 9 8 8 8 8 8 7 7 6 5 4 3 2 2 2 2 2 2 3 3 3 3 2 2 3 3 3 2 2 2 3 3 3 3 3 4 4 4 4 5 5 6 7 7 7 6 6 5 6 6 6 6 7 7 7 7 7 7 6 6 6 7
11 11 10 10 9 9 8 8 7 7 8 8 8 7 7 7 7 6 5 4 3 2 1 1 2 2 2 2 2 2 2 2 2 2 3 3 3 3 4 4 4 5 5 5 6 6 7 7 8 8 8 8 8 7 7 7 7 7 7 7 7 6 6 6 5 5 5 6 6
13 13 12 11 10 9 9 9 7 7 7 8 7 7 7 7 8 8 8 7 5 3 2 1 1 2 2 2 2 2 2 3 3 3 3 3 4 4 4 5 5 6 6 6 7 7 8 9 9 9 9 9 9 9 8 8 8 8 8 7 7 7 6 6 6 6 6 7 7
14 14 13 12 12 12 11 10 8 8 8 8 8 8 8 7 8 9 9 10 8 6 5 3 2 2 2 2 2 2 3 4 4 4 4 4 5 5 6 6 7 7 7 8 8 8 9 10 10 10 10 10 10 9 9 9 9 8 8 8 7 7 7 7 7 7 7 8 8
15 14 14 14 14 13 12 11 10 9 10 10 10 10 9 8 8 9 10 11 9 9 9 9 6 5 3 2 2 3 3 4 4 5 5 5 6 6 7 7 7 8 8 8 9 9 10 10 10 10 10 10 10 9 9 9 8 8 8 8 7 7 7 7 7 8 8 8 9
14 14 14 14 14 14 13 13 11 11 12 12 12 11 10 10 10 10 10 11 10 11 11 11 10 8 7 6 5 4 3 4 4 5 5 6 6 7 7 7 8 8 8 8 9 9 10 10 10 10 10 10 9 9 9 8 8 8 8 8 8 7 7 8 8 8 8 8 9
14 14 14 14 14 13 13 13 12 12 12 12 12 12 12 12 12 11 11 11 11 11 11 10 10 10 9 10 8 7 5 5 5 6 6 6 6 7 7 7 7 7 8 8 8 9 9 10 10 10 9 9 9 8 8 8 8 8 8 8 8 8 8 8 8 8 8 8 9
13 13 13 13 13 13 12 12 12 11 11 11 12 12 13 13 12 12 11 11 11 11 11 10 10 10 10 10 10 10 9 7 7 7 7 7 7 7 7 7 7 8 8 8 8 8 8 9 9 9 9 9 8 8 8 8 8 8 8 8 8 8 8 8 8 8 9 9 9
13 12 12 12 12 12 12 11 11 11 11 11 11 12 12 12 12 11 11 11 11 11 11 10 10 11 11 10 10 10 10 8 9 10 9 8 8 8 8 7 7 7 7 7 7 7 8 8 8 8 8 8 8 8 8 8 8 8 8 8 8 8 9 9 9 9 9 9 9
12 12 11 11 12 12 11 11 10 10 11 11 11 11 11 11 11 11 10 10 10 10 10 10 10 10 10 10 10 10 10 9 9 10 10 10 9 8 7 7 7 7 7 7 7 8 8 8 8 8 8 8 8 8 8 8 8 8 9 9 9 9 9 9 9 9 9 9 9
11 11 11 11 11 12 12 11 11 11 11 11 11 11 11 11 11 10 10 10 10 10 10 9 9 9 9 9 10 10 10 9 9 9 10 10 10 10 9 8 7 7 7 7 7 8 8 8 8 8 8 7 8 8 9 9 9 9 9 9 9 10 10 9 9 9 9 9 9
11 11 10 10 11 12 12 12 12 11 11 11 11 11 11 11 11 10 10 11 10 10 10 9 9 9 9 9 9 9 10 10 10 10 10 10 11 11 11 10 8 7 7 6 6 7 7 7 7 7 7 7 8 8 8 9 9 9 9 9 9 9 9 9 9 9 9 9 9
10 11 10 10 11 11 11 12 12 12 11 11 10 10 10 10 10 10 10 11 11 11 11 10 10 9 9 8 9 9 9 9 10 10 10 11 10 10 10 9 9 7 6 6 7 8 9 9 8 7 7 7 7 8 8 8 9 9 9 9 9 9 9 9 9 9 9 9 9
10 10 10 10 10 11 11 11 11 11 11 10 10 10 10 10 9 9 9 10 10 10 10 10 9 9 9 8 9 9 9 9 9 10 10 10 11 11 10 9 8 7 7 7 8 10 11 12 11 10 9 8 8 8 8 8 9 9 9 10 10 9 9 9 9 9 9 9 9
9 9 10 9 10 10 10 10 10 10 10 10 10 10 10 10 9 9 9 9 9 9 8 8 8 8 8 8 9 9 9 9 9 9 10 10 11 11 10 8 8 8 8 10 12 14 14 13 13 13 12 10 9 8 8 8 9 9 10 10 10 10 10 10 10 9 9 8 8
9 9 9 9 9 9 9 9 10 10 10 10 10 10 10 11 11 10 10 9 8 7 7 6 6 6 6 6 8 9 9 9 9 9 10 10 11 11 10 8 8 8 10 13 15 17 17 17 16 14 13 12 10 9 9 9 9 8 8 9 9 10 10 10 9 8 8 8 7
9 9 9 9 9 8 8 9 9 9 10 10 10 10 10 10 11 11 11 11 9 8 7 6 6 6 5 6 7 8 8 8 8 8 9 10 10 10 10 9 9 10 11 14 16 17 17 17 17 16 15 13 10 9 8 8 8 7 7 7 8 8 9 9 8 8 7 7 7
10 10 10 10 9 9 8 8 8 8 8 8 9 9 10 10 12 12 12 12 11 9 8 7 7 7 7 7 7 7 7 7 7 8 9 10 11 11 11 10 10 11 12 15 16 16 16 16 16 16 15 14 12 10 8 8 8 7 7 7 7 8 8 8 8 8 8 7 7
10 10 10 10 10 10 9 8 8 7 7 7 7 8 9 10 11 11 12 11 11 10 10 9 9 9 8 8 7 7 7 7 7 8 8 10 11 11 12 12 11 12 13 15 16 16 16 16 16 16 15 15 12 10 8 8 8 8 7 7 8 8 8 8 8 8 8 8 8
11 11 11 11 11 11 10 10 9 9 8 8 8 8 9 10 10 10 10 10 10 10 11 11 11 10 10 9 8 7 7 7 8 8 8 9 10 11 12 12 12 12 13 16 17 17 17 17 17 16 16 16 12 10 9 9 8 8 8 8 8 9 8 8 8 8 9 9 9
10 10 11 11 11 11 11 11 11 11 10 10 10 10 10 10 10 10 10 10 10 10 11 11 11 11 11 10 9 9 8 8 8 8 9 9 10 11 12 12 10 11 13 17 18 19 19 18 18 17 17 17 13 11 10 9 8 7 7 8 8 8 8 9 8 9 9 9 9
9 9 10 10 10 11 11 11 11 11 11 11 11 11 11 11 11 11 11 11 10 10 10 10 11 11 11 10 10 10 10 9 9 9 10 10 10 11 12 11 9 10 14 18 19 20 20 19 19 18 18 17 13 10 9 9 8 8 8 9 8 8 8 9 9 9 9 9 9
9 9 9 9 9 9 10 10 10 10 11 11 11 11 11 10 10 11 11 12 12 11 11 11 11 11 11 11 11 11 11 11 11 11 11 11 11 11 12 12 10 12 15 19 20 20 20 20 20 19 18 16 12 9 9 9 9 9 10 10 10 9 9 9 9 9 9 9 9
8 8 8 8 9 9 9 9 9 10 10 10 10 10 10 9 9 9 9 11 12 12 11 11 11 12 12 12 12 12 12 13 13 13 13 12 12 12 12 12 12 13 16 18 19 20 20 20 20 19 17 14 10 8 8 8 8 9 10 10 10 10 9 9 8 8 8 8 9
7 8 8 8 8 8 9 9 9 9 10 10 10 9 9 9 8 8 8 9 10 11 12 12 12 12 12 12 12 12 12 12 13 14 14 13 12 12 12 13 13 13 15 17 18 19 20 20 20 19 17 12 10 9 8 8 8 8 9 10 10 9 8 7 7 8 8 8 8
7 7 7 7 8 8 8 8 9 9 9 9 8 8 8 8 7 7 8 8 9 10 11 12 12 12 12 12 13 13 12 12 13 14 14 14 13 13 13 13 13 13 13 15 17 19 20 20 20 19 16 12 10 9 9 8 8 8 8 8 8 7 6 5 5 6 7 8 8
7 7 7 7 8 8 8 8 8 8 8 8 8 8 8 7 7 7 7 8 8 8 10 11 12 12 12 13 13 13 13 12 12 13 14 14 14 14 14 14 13 13 13 14 17 18 19 20 20 20 17 13 11 9 8 8 8 8 8 7 7 6 5 4 4 4 5 7 8
7 7 7 8 8 9 9 9 9 8 8 8 8 8 8 7 7 7 8 7 7 7 8 10 11 12 12 13 13 13 14 13 12 12 13 14 15 16 16 15 14 14 13 14 17 18 19 19 20 20 18 13 10 8 8 7 8 8 8 7 6 5 4 4 3 4 4 5 7
7 7 8 8 9 9 9 10 10 9 9 8 9 9 8 8 8 8 8 7 7 7 8 9 11 12 12 12 12 13 14 14 14 13 12 13 15 16 16 15 15 14 14 14 16 18 19 19 20 20 18 14 10 9 8 7 8 8 8 7 6 5 4 4 3 3 4 4 5
Wind_Direction
235 229 222 212 201 190 181 176 171 172 176 183 193 202 210 214 215 213 206 202 193 169 132 120 106 91 84 92 118 139 154 162 171 180 189 196 202 205 207 209 209 209 209 210 207 204 203 202 202 204 206 205 206 207 206 202 198 198 200 202 203 202 201 203 205 205 203 203 205
353 277 224 195 178 170 171 177 161 153 150 150 155 165 182 200 206 207 208 209 210 201 114 90 82 77 75 76 90 107 122 135 147 162 180 198 204 204 203 204 207 207 205 204 202 203 205 206 206 207 208 205 203 204 204 203 201 205 209 210 208 205 203 207 212 213 213 214 221
18 2 329 166 155 152 150 149 130 124 122 119 121 127 141 168 191 202 209 215 221 227 235 245 256 276 314 38 80 108 129 148 169 187 202 213 215 213 209 205 205 203 201 200 204 209 214 213 211 210 208 205 204 208 214 221 223 225 226 225 222 217 215 220 225 227 229 233 235
20 11 9 96 118 120 118 112 106 106 105 103 105 111 122 145 177 199 213 222 225 228 231 235 243 251 257 261 259 253 247 240 229 221 219 222 224 225 225 223 221 220 218 218 223 227 227 221 218 214 214 219 229 235 239 241 237 235 236 237 238 238 240 243 246 244 241 238 234
25 16 13 32 70 87 97 107 112 112 110 109 116 126 140 155 175 190 202 210 212 216 218 219 226 230 234 240 246 252 257 256 255 248 241 237 235 233 233 234 235 236 236 234 236 238 237 234 236 239 241 243 242 241 241 243 240 239 239 243 246 247 248 251 255 254 247 237 234
30 23 21 23 32 44 67 96 116 123 126 131 140 150 159 166 171 178 186 194 199 200 199 199 202 205 212 219 230 240 249 250 249 247 245 245 247 248 248 246 245 243 241 238 237 239 241 241 246 248 249 249 246 245 243 242 244 244 245 246 247 248 249 250 251 251 247 243 247
31 28 27 28 27 27 30 39 64 82 91 103 115 125 134 141 150 164 179 192 195 194 191 188 187 189 195 203 215 224 231 234 235 236 239 243 247 249 248 247 246 244 242 239 238 240 242 241 244 245 246 246 245 244 244 243 244 244 245 244 241 240 241 243 244 245 247 251 255
28 27 26 27 28 27 27 29 33 39 44 49 57 68 81 101 122 158 195 210 212 207 201 199 202 203 205 207 214 220 224 225 225 226 228 233 239 244 247 249 249 249 248 246 245 244 244 241 238 238 240 243 244 245 244 242 242 242 241 239 235 233 233 235 236 242 250 255 257
25 23 22 23 22 22 23 27 29 31 33 36 38 42 49 63 84 169 218 220 221 219 219 224 226 224 224 224 225 225 225 224 222 220 220 224 231 239 245 249 251 252 252 251 248 247 246 246 243 242 241 241 244 247 250 250 248 246 244 240 237 232 230 231 235 243 250 254 255
24 20 16 15 12 12 15 22 26 28 29 29 29 32 38 49 57 64 183 208 216 252 250 240 240 242 243 243 237 231 224 218 211 204 206 215 227 235 242 246 248 250 253 255 256 256 255 255 253 251 248 245 246 250 254 256 256 255 253 250 246 243 241 239 241 245 249 251 252
27 22 18 14 9 6 9 16 22 25 25 22 17 14 15 25 31 29 359 319 296 278 261 240 231 233 237 240 235 225 212 193 182 177 179 184 195 209 222 234 244 254 262 267 271 273 273 272 268 266 263 257 253 253 254 254 258 260 261 260 255 251 249 248 248 248 248 248 249
31 28 24 21 16 15 16 19 21 21 20 18 11 3 357 354 353 346 326 292 270 265 261 250 235 231 232 232 222 209 192 172 162 158 158 164 167 170 173 179 203 241 259 267 271 274 275 272 269 266 264 261 257 254 252 251 255 260 263 263 259 255 253 251 249 246 244 243 245
33 30 27 24 22 23 25 25 24 22 20 17 12 5 359 355 350 343 328 295 265 255 254 253 241 235 232 227 211 193 177 165 160 162 168 176 177 176 177 182 192 208 223 235 239 244 248 252 251 251 250 249 247 244 241 239 241 245 250 253 252 250 249 247 242 237 232 230 235
32 29 26 23 22 25 27 27 26 23 20 17 14 10 6 3 359 352 341 322 298 274 248 231 230 231 229 220 204 190 180 175 176 181 187 192 194 194 195 197 199 205 211 218 221 225 229 235 237 238 239 239 238 237 235 231 231 231 232 234 236 237 237 235 230 226 224 225 230
32 28 25 22 22 23 25 24 23 20 17 17 15 14 12 9 7 3 358 348 335 322 302 254 236 229 223 215 210 209 212 216 216 213 211 209 211 212 213 214 212 212 214 215 216 218 222 226 229 231 232 233 234 235 234 232 230 227 224 222 224 227 229 230 227 225 226 227 232
32 29 26 24 23 23 22 20 18 16 14 14 15 15 15 13 11 10 8 4 358 352 345 334 310 281 253 229 220 217 219 222 222 222 222 221 222 223 224 224 222 220 219 217 217 217 218 220 222 225 226 229 231 233 234 234 232 229 225 221 221 222 224 225 225 225 226 227 230
32 29 27 26 25 24 21 18 16 13 12 12 13 13 14 13 13 13 12 10 7 4 1 355 348 337 321 301 270 247 236 231 230 229 230 230 229 229 229 229 228 225 222 220 218 217 217 217 218 219 221 224 227 230 232 234 235 234 232 229 227 225 225 225 225 225 226 228 231
31 29 27 26 24 23 21 18 15 13 11 11 11 11 11 12 12 12 10 9 8 6 4 2 360 356 350 342 329 310 286 269 258 250 245 241 237 236 234 234 233 230 226 223 221 219 217 216 216 216 218 220 222 225 228 232 236 239 240 239 236 234 233 232 231 231 231 232 235
30 28 26 25 23 21 19 16 14 12 11 10 10 9 9 10 10 9 8 7 6 4 2 1 2 1 359 355 350 343 331 312 296 282 270 260 254 248 245 242 241 237 234 230 226 223 221 218 217 217 217 219 221 222 225 229 235 240 243 243 242 241 240 240 239 238 238 238 239
29 27 25 22 20 18 16 14 12 10 9 9 8 8 7 7 7 7 6 4 3 3 2 1 1 1 360 358 354 350 345 338 328 316 303 289 277 268 261 254 250 245 242 238 235 232 229 226 224 222 222 223 225 225 226 228 232 236 239 242 242 242 242 243 242 242 242 241 241
26 24 21 20 18 16 14 12 10 9 8 8 7 6 4 3 4 4 3 2 2 2 3 1 0 359 358 356 353 350 347 344 339 333 325 314 300 287 276 267 260 254 249 245 243 242 240 238 235 232 230 229 230 230 230 230 231 232 234 236 238 239 241 241 242 242 242 241 241
23 20 18 17 15 13 11 9 8 8 7 7 5 3 2 1 1 0 360 359 1 2 2 0 359 357 356 354 351 348 344 341 339 335 331 326 317 308 297 284 271 262 256 252 251 251 251 250 246 242 238 236 235 234 234 233 234 234 234 234 236 237 239 240 240 240 240 240 240
20 17 16 15 12 11 10 8 7 7 6 5 3 1 360 358 357 357 357 358 360 360 359 357 355 353 351 350 348 346 343 339 336 333 330 328 325 322 317 308 291 276 266 259 256 256 256 256 253 248 244 242 241 239 238 237 237 237 238 237 238 238 239 239 239 239 239 239 239
18 15 13 12 10 9 8 7 6 6 4 3 1 359 357 355 354 354 355 357 357 357 356 354 351 348 347 347 346 345 343 339 336 333 330 329 327 326 324 319 309 295 282 270 262 256 254 254 253 251 248 245 244 244 243 241 241 241 241 241 242 242 242 241 240 239 239 239 239
16 14 12 11 9 8 8 7 6 4 2 359 357 356 355 354 352 353 353 354 354 353 352 349 347 345 345 344 344 344 343 340 337 333 331 329 328 326 324 321 316 309 300 288 274 263 256 254 253 252 251 248 246 246 246 245 245 244 244 245 245 245 245 244 241 239 238 238 237
16 14 12 10 8 8 8 7 4 1 359 356 355 355 354 353 351 351 352 352 351 349 347 346 344 343 342 341 341 341 340 339 336 333 330 328 326 325 323 320 316 314 311 308 299 287 275 265 258 255 254 255 252 251 250 248 246 245 245 246 246 246 246 245 242 239 236 236 235
17 15 12 10 9 9 7 4 2 0 358 356 354 353 353 353 352 352 352 351 347 344 342 342 341 340 338 338 337 337 336 334 332 330 328 326 325 324 322 318 315 314 315 319 319 315 307 294 279 269 261 259 257 255 254 253 249 247 246 245 245 244 243 243 242 239 237 235 233
14 13 11 10 11 9 6 4 3 2 359 357 354 352 352 354 354 353 352 349 344 341 340 340 339 338 336 336 335 333 330 328 327 326 325 323 322 321 319 315 313 312 314 318 320 321 319 316 307 295 282 270 265 260 257 256 253 250 247 244 243 242 241 240 239 237 234 232 229
9 8 8 9 9 8 6 6 5 2 359 356 353 352 352 354 355 354 351 347 344 342 340 338 337 336 335 334 331 328 325 323 323 322 321 320 320 319 317 314 311 310 311 312 313 314 315 317 315 310 302 290 281 271 263 257 254 251 248 244 242 241 239 238 237 235 232 230 226
2 3 3 4 4 4 4 4 2 360 358 356 355 355 355 357 356 354 351 346 342 339 336 333 331 330 329 328 326 325 323 322 320 319 318 318 317 317 315 314 312 310 309 310 310 310 310 311 312 311 309 302 294 285 275 266 259 253 248 244 241 238 237 236 235 234 232 229 225
357 357 358 358 358 358 358 357 356 356 355 356 356 357 358 358 356 352 348 343 338 334 331 329 327 325 323 323 321 321 321 321 320 319 318 317 316 315 314 312 311 310 309 311 311 311 311 311 310 310 308 305 300 293 284 275 268 260 252 246 240 236 234 233 232 231 229 226 223
355 355 355 355 354 352 351 351 351 351 352 353 354 356 357 356 353 349 344 339 335 332 331 329 327 325 322 321 319 319 319 320 319 318 318 317 315 314 312 311 310 309 310 312 313 313 313 312 311 310 308 305 300 294 288 281 274 267 259 252 245 238 233 231 231 229 227 224 220
356 355 354 353 350 348 348 348 348 348 348 349 351 352 351 350 348 345 343 340 336 334 332 330 328 325 323 321 319 318 317 316 315 315 315 315 313 312 311 310 308 308 310 312 313 313 313 312 311 310 308 305 300 295 289 283 278 272 266 259 252 245 239 235 233 230 226 222 219
357 356 355 352 349 347 346 346 346 346 347 347 348 348 347 345 344 343 341 339 337 334 332 330 328 325 322 320 319 318 316 315 314 313 312 312 311 310 309 308 306 307 310 312 312 312 312 311 310 309 307 305 300 294 287 282 278 274 270 265 261 254 247 240 237 232 227 221 217
358 356 354 352 349 347 346 345 345 345 345 345 344 343 342 341 340 338 336 335 333 332 330 329 327 326 324 322 321 319 318 316 315 313 311 309 308 306 305 304 302 305 308 310 311 311 310 310 309 308 306 304 299 292 286 281 277 273 270 266 263 257 250 243 239 235 229 221 215
356 355 353 350 348 347 346 345 344 344 344 343 341 340 338 336 334 332 331 330 330 329 328 328 327 325 324 323 321 319 318 317 315 313 311 308 306 304 301 301 300 303 306 308 308 309 309 308 308 307 306 302 296 290 285 281 277 273 269 266 262 257 250 243 239 235 230 223 214
354 353 351 349 348 346 346 345 344 343 342 341 338 336 334 331 329 328 328 329 329 327 326 326 324 323 321 320 318 316 314 314 312 311 309 307 305 302 300 299 298 300 302 305 306 306 306 307 306 306 305 300 295 289 285 281 277 273 269 266 262 256 249 241 237 234 230 224 215
351 351 351 349 347 346 345 344 344 342 339 336 334 332 330 328 326 326 328 330 328 326 324 323 321 319 317 316 313 311 310 309 309 308 307 306 304 302 299 297 296 296 298 300 302 303 304 305 305 304 303 298 293 289 285 281 277 273 269 265 262 256 248 241 235 232 230 225 216
349 350 351 350 348 346 345 344 343 339 336 332 331 329 328 326 325 325 326 327 325 321 319 317 316 315 314 314 312 310 308 306 306 305 305 304 303 302 300 297 295 293 293 295 298 300 301 302 302 302 301 296 291 286 283 279 276 272 268 264 261 255 248 240 235 233 231 229 219
347 349 350 351 348 346 345 343 341 338 335 332 331 329 328 325 323 322 322 322 319 316 313 311 311 312 312 312 310 308 307 305 305 304 303 302 302 301 300 297 294 293 292 292 295 297 298 299 300 301 300 295 290 285 280 277 274 270 266 261 258 254 248 241 235 232 233 233 224
345 347 348 349 347 346 343 341 338 336 335 334 332 329 327 325 323 322 321 320 317 314 312 310 310 311 311 311 308 306 305 304 304 303 302 301 300 300 299 297 295 293 292 291 293 294 296 297 298 299 298 295 290 285 280 276 272 269 264 259 254 250 246 241 237 234 233 232 229